This is the latest recevied weather packets stored in our database for station/object KC8YYF. If no packets are shown the sender has not sent any weather packets the latest 10 day(s).
| Time | Temp. | Humidity | Pressure | Rain* | Wind** | Luminosity | Snow |
|---|---|---|---|---|---|---|---|
| 1777680443 | 5.56° C | 90% | 1015.7 hPa | 0 mm | - | 1 W/m² | - |
| 1777680141 | 5.56° C | 90% | 1015.7 hPa | 0 mm | - | 2 W/m² | - |
| 1777679836 | 5.56° C | 88% | 1015.7 hPa | 0 mm | - | 2 W/m² | - |
| 1777679532 | 5.56° C | 88% | 1015.4 hPa | 0 mm | - | 5 W/m² | - |
| 1777679228 | 5.56° C | 87% | 1015.5 hPa | 0 mm | - | 7 W/m² | - |
| 1777678925 | 6.11° C | 86% | 1015.3 hPa | 0 mm | - | 7 W/m² | - |
| 1777678623 | 6.11° C | 86% | 1015.2 hPa | 0 mm | - | 10 W/m² | - |
| 1777678320 | 6.11° C | 85% | 1015 hPa | 0 mm | - | 10 W/m² | - |
| 1777678016 | 6.11° C | 86% | 1015.1 hPa | 0 mm | - | 12 W/m² | - |
| 1777677713 | 6.11° C | 84% | 1015.1 hPa | 0 mm | - | 17 W/m² | - |
| 1777677411 | 6.11° C | 86% | 1015.1 hPa | 0 mm | - | 13 W/m² | - |
| 1777677109 | 6.11° C | 86% | 1014.9 hPa | 0 mm | - | 17 W/m² | - |
| 1777676807 | 5.56° C | 88% | 1015.2 hPa | 0 mm | - | 24 W/m² | - |
| 1777676505 | 5.56° C | 89% | 1015 hPa | 0 mm | - | 21 W/m² | - |
| 1777676203 | 6.11° C | 89% | 1015.2 hPa | 0 mm | - | 11 W/m² | - |
| 1777675899 | 6.11° C | 89% | 1015.3 hPa | 0 mm | - | 17 W/m² | - |
| 1777675596 | 5.56° C | 88% | 1015.4 hPa | 0 mm | - | 16 W/m² | - |
| 1777675293 | 5.56° C | 89% | 1015.4 hPa | 0 mm | - | 7 W/m² | - |
| 1777674989 | 5.56° C | 88% | 1015.4 hPa | 0 mm | - | 7 W/m² | - |
| 1777674686 | 6.11° C | 90% | 1015.3 hPa | 0 mm | - | 6 W/m² | - |
| 1777674388 | 6.11° C | 90% | 1015.3 hPa | 0 mm | - | 9 W/m² | - |
| 1777674080 | 6.11° C | 91% | 1015.2 hPa | 0 mm | - | 6 W/m² | - |
| 1777673776 | 6.11° C | 90% | 1015.1 hPa | 0 mm | - | 10 W/m² | - |
| 1777673474 | 6.11° C | 89% | 1015 hPa | 0 mm | - | 1 W/m² | - |
| 1777673171 | 6.11° C | 90% | 1014.6 hPa | 0 mm | - | 11 W/m² | - |
* Rain latest hour (hover to see other rain measurements)
** Current wind speed in m/s (hover to see current wind gust speed)